Regional Weather Roundup
Issued by NWS

Home | Current Version | Previous Version | Text Only | Print | Product List | Glossary Off
Versions: 1 2 3 4 5 6 7 8 9 10 11 12 13 14 15 16 17 18 19 20 21 22 23 24 25 26 27 28 29 30 31 32 33 34 35 36 37 38 39 40 41 42 43 44 45 46 47 48 49 50

000
ASUS43 KTOP 161808
RWRKS

WEATHER ROUNDUP FOR KANSAS
NATIONAL WEATHER SERVICE GOODLAND KS
100 PM CDT MON OCT 16 2017

NOTE:  "FAIR" INDICATES FEW OR NO CLOUDS BELOW 12,000 FEET WITH NO
SIGNIFICANT WEATHER AND/OR OBSTRUCTIONS TO VISIBILITY.

KSZ001>006-013>018-027>032-041>047-161900-
NORTHWEST KANSAS

CITY           SKY/WX    TMP DP  RH WIND       PRES   REMARKS
GOODLAND       SUNNY     72  32  23 S17G28    30.23F
6HR MIN TEMP:  31; 6HR MAX TEMP:  72;

HAYS           SUNNY     71  34  25 SW24      30.29F
RUSSELL        SUNNY     71  37  28 SW20G29   30.29F
6HR MIN TEMP:  38; 6HR MAX TEMP:  71;

$$

KSZ061>065-074>080-084>089-161900-
SOUTHWEST KANSAS

CITY           SKY/WX    TMP DP  RH WIND       PRES   REMARKS
DODGE CITY     SUNNY     70  28  21 S22       30.34F
6HR MIN TEMP:  36; 6HR MAX TEMP:  70; 6HR PCP: TRACE;

ELKHART          N/A     66  37  34 S18         N/A
GARDEN CITY    SUNNY     69  31  24 S21G28    30.31F
6HR MIN TEMP:  33; 6HR MAX TEMP:  71;

LIBERAL        SUNNY     69  35  28 S20G26    30.34F
PRATT          SUNNY     68  32  26 S17       30.36F
6HR MIN TEMP:  38; 6HR MAX TEMP:  69;

$$

KSZ066>073-081>083-090>101-161900-
SOUTHEAST KANSAS

CITY           SKY/WX    TMP DP  RH WIND       PRES   REMARKS
CHANUTE        SUNNY     64  40  41 S7        30.41F
6HR MIN TEMP:  39; 6HR MAX TEMP:  65;

COFFEYVILLE    SUNNY     65  40  39 S6        30.42F
6HR MIN TEMP:  40; 6HR MAX TEMP:  65;

HUTCHINSON     SUNNY     69  40  34 S15       30.35F
6HR MIN TEMP:  34; 6HR MAX TEMP:  70;

MEDICINE LODGE   N/A     68  35  29 SW15      30.37F
NEWTON         SUNNY     65  42  43 S13       30.37F
PARSONS        LGT RAIN  64  39  39 SW6       30.43F
6HR MIN TEMP:  37; 6HR MAX TEMP:  65; 6HR PCP: TRACE;

WICHITA INTL   SUNNY     66  42  41 S14       30.38F
6HR MIN TEMP:  39; 6HR MAX TEMP:  66;

WICHITA JABRA  SUNNY     66  40  38 S15       30.38F
6HR MIN TEMP:  41; 6HR MAX TEMP:  66;

WICHITA MCCONL SUNNY     67  41  39 SW12      30.37F
WINFIELD       SUNNY     65  43  44 S9        30.42F
6HR MIN TEMP:  39; 6HR MAX TEMP:  65;

$$

KSZ007>012-019>026-033>040-048>060-102>105-161900-
NORTHEAST KANSAS

CITY           SKY/WX    TMP DP  RH WIND       PRES   REMARKS
CONCORDIA      SUNNY     69  42  37 SW16      30.30F
6HR MIN TEMP:  40; 6HR MAX TEMP:  69;

EMPORIA        SUNNY     67  38  34 S10       30.37F
6HR MIN TEMP:  39; 6HR MAX TEMP:  67;

LAWRENCE       SUNNY     67  42  40 S9        30.37F
6HR MIN TEMP:  35; 6HR MAX TEMP:  67;

MANHATTAN      SUNNY     69  43  38 VRB6      30.33F
6HR MIN TEMP:  36; 6HR MAX TEMP:  69;

MARYSVILLE     SUNNY     68  41  37 SW10      30.31F
OLATHE IND     SUNNY     65  42  43 SW10      30.38F
6HR MIN TEMP:  41; 6HR MAX TEMP:  65;

OLATHE EXE     SUNNY     64  41  42 S8        30.38F
6HR MIN TEMP:  41; 6HR MAX TEMP:  64; 6HR PCP: TRACE;

SALINA         SUNNY     71  39  31 SW18      30.34F
6HR MIN TEMP:  40; 6HR MAX TEMP:  71;

TOPEKA BILLARD SUNNY     68  44  42 VRB7      30.35F
6HR MIN TEMP:  37; 6HR MAX TEMP:  68;

TOPEKA FORBES  SUNNY     69  41  36 S13G18    30.36F
6HR MIN TEMP:  37; 6HR MAX TEMP:  69;

$$



USA.gov is the U.S. government's official web portal to all federal, state and local government web resources and services.